User: anonymous   Login
Location: Frydek-Mistek
(49.6830°N, 18.3330°E)
Time: 08:30:36
(UTC+01:00)
Language:

Courier 1B Rocket - Orbit

View from above orbital plane
View from above orbital plane
View from above satellite
View from above satellite

Ground track
Ground track

The orbit data is extracted from the following two-line orbital elements,

1 00059U 60013B   15053.51480326  .00000124  00000-0  43380-4 0  9996
2 00059 028.2495 113.1076 0189163 187.5493 172.2182 13.52913416683926
Epoch (UTC): 22 February 2015 12:21:19
Eccentricity: 0.0189163
inclination: 28.2495°
perigee height: 921 km
apogee height: 1202 km
right ascension of ascending node: 113.1076°
argument of perigee: 187.5493°
revolutions per day: 13.52913416
mean anomaly at epoch: 172.2182°
orbit number at epoch: 68392

The dashed part of the orbit path shows where the satellite is in the earth's shadow,  

DLR